| time (UTC) | temp F | wind direction | speed MPH | gust MPH | rain 1hr in | rain 24hr in | rain mn in | humidity % | barometer mb |
| 20260506230052 | 68 | 0.0 | 0.0 | 0.00 | 0.00 | 0.00 | 58 | 1006.5 | |
| 20260506224453 | 68 | 0.0 | 0.0 | 0.00 | 0.00 | 0.00 | 59 | 1006.6 | |
| 20260506222856 | 68 | 0.0 | 0.0 | 0.00 | 0.00 | 0.00 | 59 | 1006.6 | |
| 20260506221257 | 68 | 0.0 | 0.0 | 0.00 | 0.00 | 0.00 | 59 | 1006.6 | |
| 20260506215659 | 68 | 0.0 | 0.0 | 0.00 | 0.00 | 0.00 | 58 | 1006.9 | |
| 20260506214102 | 69 | 0.0 | 0.0 | 0.00 | 0.00 | 0.00 | 56 | 1006.7 | |
| 20260506212503 | 69 | 0.0 | 0.0 | 0.00 | 0.00 | 0.00 | 56 | 1006.9 | |
| 20260506210905 | 70 | 0.0 | 0.0 | 0.00 | 0.00 | 0.00 | 54 | 1006.6 | |
| 20260506205321 | 70 | 0.0 | 0.0 | 0.00 | 0.00 | 0.00 | 55 | 1006.6 | |
| 20260506205307 | 70 | 0.0 | 0.0 | 0.00 | 0.00 | 0.00 | 55 | 1006.6 | |
| 20260506203711 | 70 | 0.0 | 0.0 | 0.00 | 0.00 | 0.00 | 55 | 1006.4 | |
| 20260506202111 | 71 | 0.0 | 0.0 | 0.00 | 0.00 | 0.00 | 53 | 1006.5 | |
| 20260506200513 | 71 | 0.0 | 0.0 | 0.00 | 0.00 | 0.00 | 55 | 1006.3 | |
| 20260506194916 | 71 | 0.0 | 0.0 | 0.00 | 0.00 | 0.00 | 54 | 1006.0 | |
| 20260506193317 | 70 | 0.0 | 0.0 | 0.00 | 0.00 | 0.00 | 55 | 1006.0 | |
| 20260506191719 | 71 | 0.0 | 0.0 | 0.00 | 0.00 | 0.00 | 55 | 1005.9 | |
| 20260506190122 | 71 | 0.0 | 0.0 | 0.00 | 0.00 | 0.00 | 56 | 1005.6 | |
| 20260506184523 | 71 | 0.0 | 0.0 | 0.00 | 0.00 | 0.00 | 58 | 1005.1 | |
| 20260506182925 | 71 | 0.0 | 0.0 | 0.00 | 0.00 | 0.00 | 58 | 1005.0 | |
| 20260506181327 | 71 | 0.0 | 0.0 | 0.00 | 0.00 | 0.00 | 59 | 1004.9 | |
| 20260506175729 | 75 | 0.0 | 0.0 | 0.00 | 0.00 | 0.00 | 55 | 1004.2 | |
| 20260506174131 | 75 | 0.0 | 0.0 | 0.00 | 0.00 | 0.00 | 57 | 1003.9 | |
| 20260506172533 | 77 | 0.0 | 0.0 | 0.00 | 0.00 | 0.00 | 51 | 1004.3 | |
| 20260506170935 | 73 | 0.0 | 0.0 | 0.00 | 0.00 | 0.00 | 56 | 1004.9 | |
| 20260506165338 | 73 | 0.0 | 0.0 | 0.00 | 0.00 | 0.00 | 55 | 1004.8 | |
| 20260506163739 | 73 | 0.0 | 0.0 | 0.00 | 0.00 | 0.00 | 61 | 1003.6 | |
| 20260506162523 | 71 | 0.0 | 0.0 | 0.00 | 0.00 | 0.00 | 51 | 1006.3 | |
| 20260506162141 | 71 | 0.0 | 0.0 | 0.00 | 0.00 | 0.00 | 51 | 1006.3 | |
| 20260506160544 | 71 | 0.0 | 0.0 | 0.00 | 0.00 | 0.00 | 50 | 1007.0 | |
| 20260506154945 | 73 | 0.0 | 0.0 | 0.00 | 0.00 | 0.00 | 49 | 1006.5 | |
| 20260506153347 | 74 | 0.0 | 0.0 | 0.00 | 0.00 | 0.00 | 48 | 1006.5 | |
| 20260506151749 | 77 | 0.0 | 0.0 | 0.00 | 0.00 | 0.00 | 40 | 1006.6 | |
| 20260506150151 | 77 | 0.0 | 0.0 | 0.00 | 0.00 | 0.00 | 40 | 1006.4 | |
| 20260506144553 | 82 | 0.0 | 0.0 | 0.00 | 0.00 | 0.00 | 35 | 1005.7 | |
| 20260506142955 | 78 | 0.0 | 0.0 | 0.00 | 0.00 | 0.00 | 37 | 1006.6 | |
| 20260506141357 | 79 | 0.0 | 0.0 | 0.00 | 0.00 | 0.00 | 37 | 1006.3 | |
| 20260506135759 | 80 | 0.0 | 0.0 | 0.00 | 0.00 | 0.00 | 36 | 1006.3 | |
| 20260506134201 | 80 | 0.0 | 0.0 | 0.00 | 0.00 | 0.00 | 38 | 1006.0 | |
| 20260506132603 | 78 | 0.0 | 0.0 | 0.00 | 0.00 | 0.00 | 39 | 1006.6 | |
| 20260506131005 | 76 | 0.0 | 0.0 | 0.00 | 0.00 | 0.00 | 43 | 1006.6 | |
| 20260506125407 | 76 | 0.0 | 0.0 | 0.00 | 0.00 | 0.00 | 44 | 1006.8 | |
| 20260506123809 | 77 | 0.0 | 0.0 | 0.00 | 0.00 | 0.00 | 42 | 1006.6 | |
| 20260506122211 | 78 | 0.0 | 0.0 | 0.00 | 0.00 | 0.00 | 42 | 1006.4 | |
| 20260506120613 | 77 | 0.0 | 0.0 | 0.00 | 0.00 | 0.00 | 43 | 1006.7 | |
| 20260506115015 | 76 | 0.0 | 0.0 | 0.00 | 0.00 | 0.00 | 44 | 1006.8 | |
| 20260506113417 | 76 | 0.0 | 0.0 | 0.00 | 0.00 | 0.00 | 42 | 1006.8 | |
| 20260506111819 | 75 | 0.0 | 0.0 | 0.00 | 0.00 | 0.00 | 44 | 1007.0 | |
| 20260506110221 | 72 | 0.0 | 0.0 | 0.00 | 0.00 | 0.00 | 48 | 1007.1 | |
| 20260506104623 | 72 | 0.0 | 0.0 | 0.00 | 0.00 | 0.00 | 48 | 1007.4 | |
| 20260506103025 | 71 | 0.0 | 0.0 | 0.00 | 0.00 | 0.00 | 53 | 1006.9 | |
| 20260506101427 | 71 | 0.0 | 0.0 | 0.00 | 0.00 | 0.00 | 52 | 1006.8 | |
| 20260506095829 | 72 | 0.0 | 0.0 | 0.00 | 0.00 | 0.00 | 50 | 1006.5 | |
| 20260506094231 | 71 | 0.0 | 0.0 | 0.00 | 0.00 | 0.00 | 53 | 1006.4 | |
| 20260506092633 | 70 | 0.0 | 0.0 | 0.00 | 0.00 | 0.00 | 54 | 1006.4 | |
| 20260506091035 | 69 | 0.0 | 0.0 | 0.00 | 0.00 | 0.00 | 55 | 1006.5 | |
| 20260506085437 | 69 | 0.0 | 0.0 | 0.00 | 0.00 | 0.00 | 57 | 1005.9 | |
| 20260506083839 | 68 | 0.0 | 0.0 | 0.00 | 0.00 | 0.00 | 59 | 1005.9 | |
| 20260506082241 | 67 | 0.0 | 0.0 | 0.00 | 0.00 | 0.00 | 60 | 1006.0 | |
| 20260506080919 | 67 | 0.0 | 0.0 | 0.00 | 0.00 | 0.00 | 60 | 1005.9 | |
| 20260506080643 | 67 | 0.0 | 0.0 | 0.00 | 0.00 | 0.00 | 60 | 1005.9 | |
| 20260506073447 | 66 | 0.0 | 0.0 | 0.00 | 0.00 | 0.00 | 62 | 1005.9 | |
| 20260506071848 | 65 | 0.0 | 0.0 | 0.00 | 0.00 | 0.00 | 63 | 1006.0 | |
| 20260506070250 | 64 | 0.0 | 0.0 | 0.00 | 0.00 | 0.00 | 64 | 1006.1 | |
| 20260506061457 | 64 | 0.0 | 0.0 | 0.00 | 0.00 | 0.00 | 63 | 1005.9 | |
| 20260506051104 | 63 | 0.0 | 0.0 | 0.00 | 0.00 | 0.00 | 65 | 1006.2 | |
| 20260506043909 | 62 | 0.0 | 0.0 | 0.00 | 0.00 | 0.00 | 65 | 1006.5 | |
| 20260506042312 | 62 | 0.0 | 0.0 | 0.00 | 0.00 | 0.00 | 64 | 1006.6 | |
| 20260506040713 | 62 | 0.0 | 0.0 | 0.00 | 0.00 | 0.00 | 63 | 1006.7 | |
| 20260506035116 | 62 | 0.0 | 0.0 | 0.00 | 0.00 | 0.00 | 62 | 1006.9 | |
| 20260506033519 | 63 | 0.0 | 0.0 | 0.00 | 0.00 | 0.00 | 61 | 1006.9 | |
| 20260506031919 | 63 | 0.0 | 0.0 | 0.00 | 0.00 | 0.00 | 59 | 1007.3 | |
| 20260506030322 | 63 | 0.0 | 0.0 | 0.00 | 0.00 | 0.00 | 58 | 1007.3 | |
| 20260506024724 | 63 | 0.0 | 0.0 | 0.00 | 0.00 | 0.00 | 58 | 1007.4 | |
| 20260506023125 | 62 | 0.0 | 0.0 | 0.00 | 0.00 | 0.00 | 58 | 1007.7 | |
| 20260506021527 | 63 | 0.0 | 0.0 | 0.00 | 0.00 | 0.00 | 57 | 1007.9 | |
| 20260506015929 | 63 | 0.0 | 0.0 | 0.00 | 0.00 | 0.00 | 55 | 1007.9 | |
| 20260506014332 | 64 | 0.0 | 0.0 | 0.00 | 0.00 | 0.00 | 54 | 1008.0 | |
| 20260506012733 | 64 | 0.0 | 0.0 | 0.00 | 0.00 | 0.00 | 52 | 1008.1 | |
| 20260506011135 | 65 | 0.0 | 0.0 | 0.00 | 0.00 | 0.00 | 51 | 1008.4 | |
| 20260506005538 | 65 | 0.0 | 0.0 | 0.00 | 0.00 | 0.00 | 49 | 1008.3 | |
| 20260506003940 | 66 | 0.0 | 0.0 | 0.00 | 0.00 | 0.00 | 48 | 1008.3 | |
| 20260506002342 | 66 | 0.0 | 0.0 | 0.00 | 0.00 | 0.00 | 48 | 1008.4 | |
| 20260506000743 | 67 | 0.0 | 0.0 | 0.00 | 0.00 | 0.00 | 46 | 1008.3 | |
| 20260505235145 | 68 | 0.0 | 0.0 | 0.00 | 0.00 | 0.00 | 46 | 1008.5 | |
| 20260505233547 | 68 | 0.0 | 0.0 | 0.00 | 0.00 | 0.00 | 45 | 1008.4 | |
| 20260505231949 | 68 | 0.0 | 0.0 | 0.00 | 0.00 | 0.00 | 46 | 1008.7 |